map of NFL home
NFL - Airport
Location
City:  Fallon, Nevada, United States
Name:NAS Fallon
Old (Alt.):Van Voorhis Field
ICAO:KNFL
IATA:NFL
FAA LID:NFL

Details
Type:Airport (Airfield)
Use:Military
Latitude:3925'04"N (39.417831)
Longitude:11841'55"W (-118.698587)
Datum:WGS 1984
Elevation:3934 ft (1199 m)
Variation:13.11E (WMM2015v2 magnetic declination)
-0.08 annual change
Runways:3
Longest:14004 × 200 ft (4268 × 61 m), paved

Time
Time Zone:UTC-8 (DST-7)
Local Time:

Weather
METAR:KNFL 041356Z AUTO 19013KT 10SM CLR 05/M04 A2940 RMK AO2 SLP949 T00501039

Related Locations
Nearby:
Farthest:FTU: 11140 mi / 17929 km
Tolagnaro [Maurillac Airport (Fort Dauphin Airport)], MG

Find:

   beyond  
but within

Other Information
Maps:
NOTAMs:
Links:
Sources:

  
  • flag of United States
  • flag of Nevada
  

Airport Diagram

Airport diagram for NFL

Airport diagram PDF from FAA

Sectional Chart

Flight Planning
at skyvector.com

Satellite Image

Google Maps Satellite view

 

Copyright © 2004-2019 Karl L. Swartz. All rights reserved.
The Great Circle Mapper name and logo are trademarks of the Great Circle Mapper.
All other trademarks mentioned herein belong to their respective owners.
Please see credits for attibutions and further copyright information.

  Follow gcmap on Facebook Follow gcmap on Twitter GCmap on LinkedIn

hCard Microformat

Geo Microformat